Location: Holkham
(52.9500°N, 0.8167°E)
Time: 05:28:00
(UTC+00:00)

ISS - Pass Details

Date: 19 May 2025
Orbit: 415 x 417 km, 51.6° (Epoch: 13 June)

Event Time Altitude Azimuth Distance (km) Brightness Sun altitude
Rises 21:46:06 0° 280° (W) 2,364 0.7 -12.0°
Reaches altitude 10° 21:48:17 10° 272° (W) 1,497 -0.5 -12.2°
Maximum altitude 21:51:24 36° 204° (SSW) 679 -3.0 -12.4°
Enters shadow 21:52:55 23° 153° (SSE) 937 -2.6 -12.6°
